This demonstration page uses our WeatherBlox Daily Observations layout. Learn more.

41.55636, -103.73856

Hourly Observations for June 23, 2017

Temp ( °F °C ) Dew Point ( °F °C ) Humidity (%) Winds ( mph kmh ) Pressure ( in mb ) Visibility ( mi km ) Precip ( " mm )
12:53 am 00:53 Cloudy 64 17.8 42 5.6 45 45 NNE 23 37 29.96 1015 10 16.0934 0 0
1:53 am 01:53 Cloudy 63 17.2 36 2.2 37 37 NE 15 24 29.99 1016 10 16.0934 0 0
2:53 am 02:53 Cloudy 62 16.7 35 1.7 37 37 N 17 28 30.04 1017 10 16.0934 0 0
3:53 am 03:53 Cloudy 57 13.9 40 4.4 53 53 N 17 28 30.12 1020 10 16.0934 0 0
4:53 am 04:53 Cloudy 54 12.2 38 3.3 55 55 NNW 17 28 30.16 1021 10 16.0934 0 0
5:53 am 05:53 Cloudy 54 12.2 37 2.8 53 53 NW 9 15 30.16 1021 10 16.0934 0 0
6:53 am 06:53 Cloudy 54 12.2 38 3.3 55 55 W 6 9 30.15 1021 10 16.0934 0 0
7:53 am 07:53 Cloudy 56 13.3 39 3.9 53 53 WNW 10 17 30.15 1021 10 16.0934 0 0
8:53 am 08:53 Mostly Cloudy 60 15.6 38 3.3 44 44 NW 16 26 30.16 1021 10 16.0934 0 0
9:53 am 09:53 Sunny 63 17.2 36 2.2 37 37 NW 20 31 30.14 1021 10 16.0934 0 0
10:53 am 10:53 Sunny 66 18.9 35 1.7 32 32 NW 16 26 30.12 1020 10 16.0934 0 0
11:53 am 11:53 Sunny 69 20.6 34 1.1 27 27 NNW 14 22 30.1 1019 10 16.0934 0 0
12:53 pm 12:53 Sunny 71 21.7 33 0.6 25 25 NW 13 20 30.09 1019 10 16.0934 0 0
1:53 pm 13:53 Sunny 72 22.2 33 0.6 24 24 WNW 12 19 30.08 1019 10 16.0934 0 0
2:53 pm 14:53 Sunny 74 23.3 35 1.7 24 24 NW 16 26 30.07 1018 10 16.0934 0 0
3:53 pm 15:53 Sunny 74 23.3 34 1.1 23 23 NNW 13 20 30.07 1018 10 16.0934 0 0
4:53 pm 16:53 Mostly Cloudy 75 23.9 33 0.6 22 22 N 13 20 30.07 1018 10 16.0934 0 0
5:53 pm 17:53 Mostly Sunny 73 22.8 31 -0.6 21 21 N 12 19 30.07 1018 10 16.0934 0 0
6:53 pm 18:53 Cloudy 72 22.2 29 -1.7 20 20 N 16 26 30.1 1019 10 16.0934 0 0
7:53 pm 19:53 Partly Cloudy 68 20 28 -2.2 22 22 NNE 15 24 30.13 1020 10 16.0934 0 0
8:53 pm 20:53 Clear 61 16.1 30 -1.1 31 31 NNE 8 13 30.15 1021 10 16.0934 0 0
9:53 pm 21:53 Clear 55 12.8 32 0 42 42 NNE 7 11 30.19 1022 10 16.0934 0 0
10:53 pm 22:53 Clear 54 12.2 32 0 43 43 NNE 9 15 30.2 1023 10 16.0934 0 0
11:53 pm 23:53 Clear 54 12.2 35 1.7 49 49 NE 6 9 30.21 1023 10 16.0934 0 0

Powered by AerisWeather